World > North America > United States > New York

Hourly Morris, NY Regional Weather

Feedback E-mail the Weather

Latest News

Morris, NY Weather Maps

°F °C°F °C
Morris Weather Map
UTC Time: 5/28/2022, 10:35
Your Time:

Morris, NY Regional Weather

Expires:202205281100;;696622
ASUS41 KBGM 281010
RWRBGM

REGIONAL WEATHER ROUNDUP
NATIONAL WEATHER SERVICE BINGHAMTON NY
600 AM EDT SAT MAY 28 2022

Note: "fair" indicates few or no clouds below 12,000 feet with no
significant weather and/or obstructions to visibility.

* = Station(s) that does not report precipitation, such as rain, 
snow, etc, also no thunder or fog.


NYZ009-015>018-022>025-036-037-044>046-055>057-062-281100
...Central New York...
  
CITY           SKY/WX    TMP DP  RH WIND       PRES   REMARKS
Binghamton     CLOUDY    59  59 100 NW3       29.73R FOG              
Cortland       MOCLDY    59  59 100 CALM      29.74R                  
Dansville      LGT RAIN  61  59  93 CALM      29.74R                  
Elmira         CLOUDY    60  58  92 CALM      29.73R                  
Endicott       CLOUDY    61  61 100 SW5       29.73R                  
Ithaca         MOCLDY    58  58 100 CALM      29.74R                  
Hamilton       CLOUDY   N/A N/A N/A CALM      29.71  VSB<1/4          
Monticello     CLOUDY    62  62 100 SW3       29.73R FOG              
Norwich        PTCLDY    57  57 100 CALM      29.74R                  
Oneonta        MOCLDY    61  61 100 CALM      29.73R                  
Penn Yan       CLOUDY    62  55  77 SW7       29.72R                  
Rome           FOG       57  56  96 NW3       29.70R VSB 1/4          
Seneca Falls   CLOUDY    61  59  94 CALM      29.72R                  
Sidney         CLOUDY    61  61 100 CALM      29.71S                  
Skaneateles    CLOUDY    61  61 100 SW6       29.72R                  
Syracuse       MOCLDY    61  58  90 W5        29.68F                  
$$
 

SKY/WX - Weather  TMP - Temperature  DP - Dew Point  RH - Humidity
WIND - Wind Direction/Speed PRES - Barometric Pressure VSB - Visibility
WCI - Wind Chill Index E13G22 Wind - East Wind 13 mph/Gusts of 22 mph

Trending Headlines

Morris Radar Loop



Morris Quick Facts


National Two Day Weather Forecast


E-mail the Morris Weather Forecast

Voice your opinion or tell us about page issues...